Weather History for Cancun, Mexico

Change the Weather History Date:

Saturday, March 2, 2013

  Actual Average Record
Temperature  
Mean Temperature 67 °F -  
Max Temperature 75 °F 83 °F 87 °F (2001)
Min Temperature 57 °F 67 °F 46 °F (2004)
Cooling Degree Days 2    
Growing Degree Days 17 (Base 50)    
Moisture  
Dew Point 51 °F    
Average Humidity 59    
Maximum Humidity 78    
Minimum Humidity 29    
Precipitation  
Precipitation 0.00 in - - ()
Sea Level Pressure  
Sea Level Pressure 30.11 in    
Wind  
Wind Speed 10 mph ()    
Max Wind Speed 26 mph    
Max Gust Speed 33 mph    
Visibility 6.8 miles    
Events      
Averages and records for this station are not official NWS values.
T = Trace of Precipitation, MM = Missing Value Source: Averaged Metar Reports

Daily Weather History Graph

Daily Weather History Graph

Search for Another Location

Airport:

Trip Planner

Search our weather history database for the weather conditions in past years. The results will help you decide how hot, cold, wet, or windy it might be!

Date:

Astronomy

Mar. 02, 2013 Rise Set
Actual Time 6:06 AM CST 5:52 PM CST
Civil Twilight 5:44 AM CST 6:14 PM CST
Nautical Twilight 5:18 AM CST 6:40 PM CST
Astronomical Twilight 4:53 AM CST 7:06 PM CST
Moon 10:43 PM CST (3/2) 9:18 AM CST (3/2)
Length of Visible Light 12h 30m
Length of Day
11h 45m
Waning Gibbous, 74% of the Moon is Illuminated
Mar 2
Waning Gibbous
Mar 4
Last Quarter
Mar 11
New
Mar 19
First Quarter
Mar 27
Full

Hourly Weather History & Observations

Time (CST) Temp. Dew Point Humidity Pressure Visibility Wind Dir Wind Speed Gust Speed Precip Events Conditions
12:40 AM 68.0 °F 59.0 °F 73% 30.02 in 6.0 mi NNW 9.2 mph - N/A   Overcast
1:43 AM 66.2 °F 59.0 °F 78% 30.02 in 6.0 mi NNW 10.4 mph - N/A   Overcast
2:46 AM 66.2 °F 59.0 °F 78% 30.02 in 6.0 mi NNW 13.8 mph - N/A   Overcast
3:40 AM 66.2 °F 57.2 °F 73% 30.02 in 6.0 mi NW 10.4 mph - N/A   Overcast
4:44 AM 66.2 °F 57.2 °F 73% 30.04 in 6.0 mi NW 8.1 mph - N/A   Mostly Cloudy
5:44 AM 66.2 °F 57.2 °F 73% 30.04 in 6.0 mi NNW 10.4 mph - N/A   Overcast
6:44 AM 66.2 °F 57.2 °F 73% 30.08 in 7.0 mi NNW 9.2 mph - N/A   Mostly Cloudy
7:40 AM 68.0 °F 55.4 °F 64% 30.11 in 7.0 mi NNW 17.3 mph - N/A   Mostly Cloudy
8:50 AM 69.8 °F 55.4 °F 60% 30.12 in 7.0 mi North 12.7 mph - N/A   Mostly Cloudy
9:17 AM 69.8 °F 55.4 °F 60% 30.14 in 7.0 mi NNW 12.7 mph 28.8 mph N/A   Mostly Cloudy
9:41 AM 71.6 °F 53.6 °F 53% 30.15 in 7.0 mi NNW 11.5 mph 28.8 mph N/A   Mostly Cloudy
10:50 AM 73.4 °F 50.0 °F 44% 30.14 in 7.0 mi NW 16.1 mph - N/A   Mostly Cloudy
11:50 AM 75.2 °F 41.0 °F 29% 30.13 in 7.0 mi NW 26.5 mph - N/A   Partly Cloudy
12:49 PM 73.4 °F 42.8 °F 33% 30.11 in 7.0 mi NNW 18.4 mph - N/A   Mostly Cloudy
1:41 PM 73.4 °F 46.4 °F 38% 30.10 in 7.0 mi NNW 16.1 mph 33.4 mph N/A   Mostly Cloudy
2:47 PM 71.6 °F 44.6 °F 38% 30.10 in 7.0 mi NNW 12.7 mph 24.2 mph N/A   Mostly Cloudy
3:53 PM 71.6 °F 44.6 °F 38% 30.11 in 7.0 mi NNW 17.3 mph 28.8 mph N/A   Mostly Cloudy
4:41 PM 69.8 °F 48.2 °F 46% 30.12 in 7.0 mi NNW 11.5 mph - N/A   Mostly Cloudy
5:44 PM 64.4 °F 46.4 °F 52% 30.15 in 7.0 mi NW 6.9 mph - N/A   Mostly Cloudy
6:45 PM 60.8 °F 48.2 °F 63% 30.17 in 7.0 mi WNW 5.8 mph - N/A   Scattered Clouds
7:40 PM 60.8 °F 50.0 °F 68% 30.18 in 7.0 mi West 2.3 mph 16.1 mph N/A   Scattered Clouds
8:49 PM 59.0 °F 48.2 °F 67% 30.18 in 7.0 mi WSW 5.8 mph - N/A   Clear
9:48 PM 59.0 °F 48.2 °F 67% 30.18 in 7.0 mi SW 8.1 mph 19.6 mph N/A   Clear
10:47 PM 59.0 °F 46.4 °F 63% 30.18 in 7.0 mi West 5.8 mph - N/A   Clear
11:46 PM 57.2 °F 46.4 °F 67% 30.15 in 7.0 mi West 5.8 mph - N/A   Clear